• In Czech Republic
  • List of Countries
  • For 7 days
  • Water Temperature
  • Satellite Maps
  • Weather Map
  • Weather Widgets
  • user-avatar
    Login

    Hourly Weather Salgotarjan

    Today, 16 December, Saturday

    Time Temperature Precipitation Wind Pressure Humidity
    00:00 +2°C° 0.9 mm 2 mps 718 mmHg 84%
    01:00 +2°C° 0 mm 2 mps 718 mmHg 85%
    02:00 +2°C° 0.9 mm 2 mps 718 mmHg 85%
    03:00 +2°C° 0.9 mm 2 mps 718 mmHg 85%
    04:00 +2°C° 0.9 mm 2 mps 718 mmHg 85%
    05:00 +2°C° 0.5 mm 2 mps 718 mmHg 85%
    06:00 +2°C° 0.5 mm 2 mps 718 mmHg 85%
    07:00 +2°C° 0 mm 1 mps 718 mmHg 88%
    08:00 +2°C° 0.4 mm 1 mps 719 mmHg 87%
    09:00 +2°C° 0.4 mm 1 mps 720 mmHg 86%
    10:00 +2°C° 0.4 mm 2 mps 721 mmHg 84%
    11:00 +3°C° 0.4 mm 1 mps 721 mmHg 84%
    12:00 +3°C° 0.4 mm 1 mps 722 mmHg 83%
    13:00 +3°C° 0.4 mm 1 mps 723 mmHg 83%
    14:00 +3°C° 0.1 mm 1 mps 723 mmHg 84%
    15:00 +2°C° 0.1 mm 1 mps 724 mmHg 85%
    16:00 +2°C° 0.1 mm 1 mps 725 mmHg 85%
    17:00 +1°C° 0 mm 1 mps 725 mmHg 86%
    18:00 +1°C° 0 mm 1 mps 726 mmHg 86%
    19:00 0°C° 0 mm 1 mps 726 mmHg 86%
    20:00 0°C° 0 mm 1 mps 727 mmHg 86%
    21:00 0°C° 0 mm 1 mps 727 mmHg 86%
    22:00 0°C° 0 mm 1 mps 728 mmHg 86%
    23:00 -1°C° 0 mm 1 mps 728 mmHg 86%

    Tomorrow, 17 December, Sunday

    Time Temperature Precipitation Wind Pressure Humidity
    00:00 -1°C° 0 mm 1 mps 729 mmHg 87%
    01:00 -1°C° 0 mm 1 mps 729 mmHg 87%
    02:00 -1°C° 0 mm 1 mps 729 mmHg 87%
    03:00 -1°C° 0 mm 1 mps 729 mmHg 88%
    04:00 -1°C° 0 mm 1 mps 730 mmHg 88%
    05:00 -1°C° 0 mm 1 mps 730 mmHg 88%
    06:00 -1°C° 0 mm 1 mps 730 mmHg 88%
    07:00 -1°C° 0 mm 1 mps 730 mmHg 88%
    08:00 0°C° 0 mm 1 mps 731 mmHg 86%
    09:00 +1°C° 0 mm 1 mps 731 mmHg 83%
    10:00 0°C° 0 mm 0 mps 732 mmHg 80%
    11:00 +2°C° 0 mm 1 mps 732 mmHg 79%
    12:00 +2°C° 0 mm 1 mps 732 mmHg 77%
    13:00 +3°C° 0 mm 1 mps 732 mmHg 75%
    14:00 +2°C° 0 mm 1 mps 732 mmHg 78%
    15:00 +1°C° 0 mm 1 mps 732 mmHg 81%
    16:00 0°C° 0 mm 1 mps 732 mmHg 84%
    17:00 0°C° 0 mm 1 mps 733 mmHg 84%
    18:00 0°C° 0 mm 1 mps 733 mmHg 85%
    19:00 0°C° 0 mm 1 mps 733 mmHg 85%
    20:00 -1°C° 0 mm 1 mps 734 mmHg 85%
    21:00 -1°C° 0 mm 1 mps 734 mmHg 84%
    22:00 -1°C° 0 mm 1 mps 734 mmHg 84%
    23:00 -1°C° 0 mm 1 mps 735 mmHg 84%

    Day after tomorrow, 18 December, Monday

    Time Temperature Precipitation Wind Pressure Humidity
    00:00 -1°C° 0 mm 1 mps 735 mmHg 84%
    01:00 -1°C° 0 mm 1 mps 735 mmHg 84%
    02:00 -1°C° 0 mm 1 mps 735 mmHg 84%
    03:00 -1°C° 0 mm 1 mps 735 mmHg 84%
    04:00 -1°C° 0 mm 1 mps 735 mmHg 84%
    05:00 -1°C° 0 mm 1 mps 735 mmHg 84%
    06:00 -2°C° 0 mm 1 mps 735 mmHg 84%
    07:00 -2°C° 0 mm 1 mps 736 mmHg 84%
    08:00 -1°C° 0 mm 1 mps 736 mmHg 81%
    09:00 0°C° 0 mm 1 mps 736 mmHg 77%
    10:00 +1°C° 0 mm 1 mps 736 mmHg 74%
    11:00 +1°C° 0 mm 1 mps 736 mmHg 72%
    12:00 +2°C° 0 mm 1 mps 736 mmHg 70%
    13:00 +2°C° 0 mm 1 mps 736 mmHg 67%
    14:00 +1°C° 0 mm 1 mps 736 mmHg 71%
    15:00 0°C° 0 mm 1 mps 736 mmHg 75%
    16:00 -1°C° 0 mm 1 mps 736 mmHg 79%
    17:00 -1°C° 0 mm 1 mps 736 mmHg 80%
    18:00 -1°C° 0 mm 1 mps 737 mmHg 80%
    19:00 -1°C° 0 mm 1 mps 737 mmHg 80%
    20:00 -1°C° 0 mm 1 mps 738 mmHg 80%
    21:00 -1°C° 0 mm 1 mps 738 mmHg 80%
    22:00 -2°C° 0 mm 1 mps 738 mmHg 80%
    23:00 -2°C° 0 mm 1 mps 739 mmHg 80%

    19 December, Tuesday

    Time Temperature Precipitation Wind Pressure Humidity
    00:00 -2°C° 0 mm 1 mps 739 mmHg 80%
    01:00 -2°C° 0 mm 1 mps 739 mmHg 80%
    02:00 -2°C° 0 mm 1 mps 739 mmHg 80%
    03:00 -2°C° 0 mm 1 mps 739 mmHg 80%
    04:00 -2°C° 0 mm 1 mps 739 mmHg 80%
    05:00 -2°C° 0 mm 1 mps 740 mmHg 80%
    06:00 -2°C° 0 mm 1 mps 740 mmHg 80%
    07:00 -3°C° 0 mm 1 mps 741 mmHg 80%
    08:00 -2°C° 0 mm 1 mps 741 mmHg 76%
    09:00 -1°C° 0 mm 1 mps 741 mmHg 72%
    10:00 0°C° 0 mm 1 mps 742 mmHg 68%
    11:00 0°C° 0 mm 1 mps 742 mmHg 66%
    12:00 +1°C° 0 mm 1 mps 742 mmHg 64%
    13:00 +2°C° 0 mm 1 mps 742 mmHg 62%
    14:00 +1°C° 0 mm 1 mps 741 mmHg 67%
    15:00 0°C° 0 mm 1 mps 741 mmHg 72%
    16:00 -1°C° 0 mm 1 mps 741 mmHg 77%
    17:00 -2°C° 0 mm 1 mps 742 mmHg 79%
    18:00 -2°C° 0 mm 1 mps 742 mmHg 80%
    19:00 -2°C° 0 mm 1 mps 742 mmHg 82%
    20:00 -2°C° 0 mm 1 mps 742 mmHg 82%
    21:00 -2°C° 0 mm 1 mps 742 mmHg 83%
    22:00 -2°C° 0 mm 1 mps 742 mmHg 83%
    23:00 -2°C° 0 mm 1 mps 741 mmHg 83%

    20 December, Wednesday

    Time Temperature Precipitation Wind Pressure Humidity
    00:00 -2°C° 0 mm 1 mps 741 mmHg 83%
    01:00 -2°C° 0 mm 1 mps 740 mmHg 83%
    02:00 -2°C° 0.1 mm 1 mps 740 mmHg 85%
    03:00 -2°C° 0.1 mm 1 mps 739 mmHg 87%
    04:00 -2°C° 0.1 mm 1 mps 739 mmHg 88%
    05:00 -1°C° 0.2 mm 1 mps 738 mmHg 90%
    06:00 -1°C° 0.2 mm 1 mps 738 mmHg 91%
    07:00 -1°C° 0.2 mm 1 mps 738 mmHg 93%
    08:00 -1°C° 0.1 mm 1 mps 738 mmHg 91%
    09:00 0°C° 0.1 mm 1 mps 738 mmHg 90%
    10:00 0°C° 0.1 mm 1 mps 738 mmHg 89%
    11:00 +1°C° 0 mm 1 mps 738 mmHg 87%
    12:00 +1°C° 0 mm 1 mps 737 mmHg 86%
    13:00 +1°C° 0 mm 1 mps 737 mmHg 84%
    14:00 +1°C° 0 mm 1 mps 737 mmHg 87%
    15:00 0°C° 0 mm 1 mps 737 mmHg 89%
    16:00 0°C° 0 mm 1 mps 737 mmHg 91%
    17:00 0°C° 0.1 mm 1 mps 738 mmHg 92%
    18:00 -1°C° 0.1 mm 1 mps 738 mmHg 92%
    19:00 -1°C° 0.1 mm 1 mps 738 mmHg 92%
    20:00 -1°C° 0.2 mm 1 mps 739 mmHg 93%
    21:00 -1°C° 0.2 mm 1 mps 739 mmHg 93%
    22:00 -2°C° 0.2 mm 0 mps 739 mmHg 93%
    23:00 -2°C° 0.1 mm 0 mps 739 mmHg 93%

    21 December, Thursday

    Time Temperature Precipitation Wind Pressure Humidity
    00:00 -2°C° 0.1 mm 0 mps 739 mmHg 94%
    01:00 -2°C° 0.1 mm 0 mps 739 mmHg 94%
    02:00 -2°C° 0.3 mm 0 mps 739 mmHg 94%
    03:00 -2°C° 0.3 mm 0 mps 739 mmHg 95%
    04:00 -1°C° 0.3 mm 1 mps 739 mmHg 95%
    05:00 -1°C° 0.3 mm 1 mps 740 mmHg 95%
    06:00 -1°C° 0.3 mm 1 mps 740 mmHg 96%
    07:00 0°C° 0.3 mm 1 mps 740 mmHg 96%
    08:00 0°C° 0 mm 1 mps 740 mmHg 95%
    09:00 0°C° 0 mm 1 mps 740 mmHg 95%
    10:00 +1°C° 0 mm 1 mps 740 mmHg 94%
    11:00 +1°C° 0 mm 1 mps 740 mmHg 94%
    12:00 +2°C° 0 mm 1 mps 740 mmHg 95%
    13:00 +2°C° 0 mm 1 mps 739 mmHg 95%
    14:00 +2°C° 0.2 mm 1 mps 739 mmHg 96%
    15:00 +2°C° 0.2 mm 1 mps 739 mmHg 97%
    16:00 +2°C° 0.2 mm 1 mps 739 mmHg 98%
    17:00 +1°C° 0.2 mm 2 mps 739 mmHg 97%
    18:00 +2°C° 0.2 mm 2 mps 739 mmHg 97%
    19:00 +2°C° 0.2 mm 2 mps 739 mmHg 97%
    20:00 +2°C° 0.2 mm 2 mps 738 mmHg 96%
    21:00 +2°C° 0.2 mm 2 mps 738 mmHg 96%
    22:00 +3°C° 0.2 mm 2 mps 738 mmHg 96%
    23:00 +2°C° 0.1 mm 3 mps 738 mmHg 95%
    Show more